Location: Colonia Mina de C?rbuni
(46.1667°N, 22.7167°E)
Time: 21:27:34
(UTC+00:00)

Tiros 1 - Pass Details

Date: 21 April 2024
Orbit: 624 x 657 km, 48.4° (Epoch: 20 May)

Event Time Altitude Azimuth Distance (km) Brightness Sun altitude
Rises 21:32:48 0° 218° (SW) 2,932 - -30.3°
Reaches altitude 10° 21:35:17 10° 209° (SSW) 2,020 - -30.4°
Maximum altitude 21:39:28 33° 145° (SE) 1,058 - -30.6°
Drops below altitude 10° 21:43:37 10° 81° (E) 2,010 - -30.7°
Sets 21:46:05 0° 72° (ENE) 2,915 - -30.8°
